| time (UTC) | temp F | wind direction | speed MPH | gust MPH | rain 1hr in | rain 24hr in | rain mn in | humidity % | barometer mb |
| 20260902074613 | 79 | 253 | 10.0 | 17.0 | 0.00 | 0.00 | 0.00 | 35 | 1016.7 |
| 20260902074042 | 80 | 277 | 10.0 | 15.0 | 0.00 | 0.00 | 0.00 | 35 | 1016.6 |
| 20260902073542 | 80 | 271 | 7.0 | 13.0 | 0.00 | 0.00 | 0.00 | 36 | 1016.6 |
| 20260902073105 | 80 | 233 | 8.0 | 13.0 | 0.00 | 0.00 | 0.00 | 36 | 1016.7 |
| 20260902072542 | 81 | 271 | 4.0 | 13.0 | 0.00 | 0.00 | 0.00 | 35 | 1016.7 |
| 20260902072042 | 81 | 238 | 4.0 | 13.0 | 0.00 | 0.00 | 0.00 | 34 | 1016.7 |
| 20260902071556 | 81 | 252 | 7.0 | 13.0 | 0.00 | 0.00 | 0.00 | 33 | 1016.6 |
| 20260902071040 | 81 | 224 | 5.0 | 12.0 | 0.00 | 0.00 | 0.00 | 32 | 1016.6 |
| 20260902070539 | 81 | 253 | 5.0 | 12.0 | 0.00 | 0.00 | 0.00 | 33 | 1016.6 |
| 20260902070106 | 81 | 252 | 5.0 | 12.0 | 0.00 | 0.00 | 0.00 | 36 | 1016.7 |
| 20260902065542 | 80 | 255 | 5.0 | 12.0 | 0.00 | 0.00 | 0.00 | 35 | 1016.6 |
| 20260902065046 | 81 | 265 | 7.0 | 12.0 | 0.00 | 0.00 | 0.00 | 35 | 1016.6 |
| 20260902064554 | 80 | 257 | 4.0 | 11.0 | 0.00 | 0.00 | 0.00 | 35 | 1016.7 |
| 20260902064045 | 80 | 278 | 4.0 | 11.0 | 0.00 | 0.00 | 0.00 | 36 | 1016.7 |
| 20260902063542 | 80 | 272 | 4.0 | 11.0 | 0.00 | 0.00 | 0.00 | 36 | 1016.7 |
| 20260902063058 | 80 | 277 | 5.0 | 11.0 | 0.00 | 0.00 | 0.00 | 38 | 1016.9 |
| 20260902062540 | 80 | 321 | 3.0 | 11.0 | 0.00 | 0.00 | 0.00 | 38 | 1016.9 |
| 20260902062042 | 80 | 269 | 6.0 | 13.0 | 0.00 | 0.00 | 0.00 | 38 | 1016.9 |
| 20260902061557 | 80 | 285 | 7.0 | 13.0 | 0.00 | 0.00 | 0.00 | 39 | 1017.0 |
| 20260902061045 | 80 | 263 | 6.0 | 13.0 | 0.00 | 0.00 | 0.00 | 39 | 1017.0 |
| 20260902060538 | 80 | 256 | 4.0 | 11.0 | 0.00 | 0.00 | 0.00 | 38 | 1016.9 |
| 20260902060058 | 80 | 293 | 5.0 | 11.0 | 0.00 | 0.00 | 0.00 | 39 | 1017.0 |
| 20260902055540 | 80 | 239 | 4.0 | 9.0 | 0.00 | 0.00 | 0.00 | 40 | 1017.0 |
| 20260902055043 | 80 | 288 | 3.0 | 7.0 | 0.00 | 0.00 | 0.00 | 40 | 1017.0 |
| 20260902054559 | 80 | 308 | 2.0 | 7.0 | 0.00 | 0.00 | 0.00 | 39 | 1017.1 |
| 20260902054040 | 80 | 317 | 2.0 | 8.0 | 0.00 | 0.00 | 0.00 | 40 | 1017.1 |
| 20260902053545 | 80 | 252 | 2.0 | 8.0 | 0.00 | 0.00 | 0.00 | 42 | 1017.2 |
| 20260902053105 | 80 | 267 | 2.0 | 8.0 | 0.00 | 0.00 | 0.00 | 43 | 1017.3 |
| 20260902052542 | 79 | 254 | 1.0 | 9.0 | 0.00 | 0.00 | 0.00 | 43 | 1017.4 |
| 20260902052042 | 79 | 266 | 5.0 | 11.0 | 0.00 | 0.00 | 0.00 | 44 | 1017.5 |
| 20260902051558 | 79 | 261 | 7.0 | 11.0 | 0.00 | 0.00 | 0.00 | 43 | 1017.7 |
| 20260902051044 | 79 | 348 | 3.0 | 9.0 | 0.00 | 0.00 | 0.00 | 44 | 1017.6 |
| 20260902050543 | 79 | 267 | 3.0 | 10.0 | 0.00 | 0.00 | 0.00 | 43 | 1017.8 |
| 20260902050105 | 79 | 306 | 2.0 | 10.0 | 0.00 | 0.00 | 0.00 | 44 | 1017.9 |
| 20260902045542 | 79 | 251 | 2.0 | 11.0 | 0.00 | 0.00 | 0.00 | 45 | 1018.0 |
| 20260902045041 | 78 | 274 | 1.0 | 11.0 | 0.00 | 0.00 | 0.00 | 46 | 1018.0 |
| 20260902044630 | 78 | 242 | 3.0 | 10.0 | 0.00 | 0.00 | 0.00 | 46 | 1018.2 |
| 20260902044043 | 79 | 269 | 4.0 | 10.0 | 0.00 | 0.00 | 0.00 | 44 | 1018.2 |
| 20260902043542 | 78 | 323 | 2.0 | 5.0 | 0.00 | 0.00 | 0.00 | 45 | 1018.3 |
| 20260902043102 | 78 | 337 | 1.0 | 7.0 | 0.00 | 0.00 | 0.00 | 47 | 1018.4 |
| 20260902042546 | 78 | 240 | 1.0 | 7.0 | 0.00 | 0.00 | 0.00 | 46 | 1018.4 |
| 20260902042041 | 78 | 246 | 1.0 | 7.0 | 0.00 | 0.00 | 0.00 | 46 | 1018.5 |
| 20260902041556 | 78 | 0 | 2.0 | 8.0 | 0.00 | 0.00 | 0.00 | 47 | 1018.6 |
| 20260902041042 | 78 | 254 | 3.0 | 8.0 | 0.00 | 0.00 | 0.00 | 45 | 1018.7 |
| 20260902040542 | 78 | 0 | 1.0 | 3.0 | 0.00 | 0.00 | 0.00 | 47 | 1018.8 |
| 20260902040057 | 77 | 254 | 1.0 | 5.0 | 0.00 | 0.00 | 0.00 | 47 | 1018.9 |
| 20260902035540 | 77 | 0 | 1.0 | 6.0 | 0.00 | 0.00 | 0.00 | 48 | 1018.9 |
| 20260902035043 | 78 | 236 | 1.0 | 6.0 | 0.00 | 0.00 | 0.00 | 46 | 1019.1 |
| 20260902034607 | 78 | 12 | 1.0 | 5.0 | 0.00 | 0.00 | 0.00 | 46 | 1019.1 |
| 20260902034042 | 78 | 360 | 1.0 | 5.0 | 0.00 | 0.00 | 0.00 | 47 | 1019.3 |
| 20260902033542 | 77 | 308 | 1.0 | 3.0 | 0.00 | 0.00 | 0.00 | 49 | 1019.3 |
| 20260902033105 | 76 | 0 | 0.0 | 5.0 | 0.00 | 0.00 | 0.00 | 49 | 1019.5 |
| 20260902032544 | 75 | 250 | 1.0 | 5.0 | 0.00 | 0.00 | 0.00 | 50 | 1019.6 |
| 20260902032042 | 75 | 250 | 1.0 | 4.0 | 0.00 | 0.00 | 0.00 | 49 | 1019.6 |
| 20260902031559 | 75 | 30 | 1.0 | 4.0 | 0.00 | 0.00 | 0.00 | 50 | 1019.8 |
| 20260902031044 | 75 | 0 | 0.0 | 4.0 | 0.00 | 0.00 | 0.00 | 51 | 1019.9 |
| 20260902030541 | 74 | 220 | 0.0 | 4.0 | 0.00 | 0.00 | 0.00 | 52 | 1019.9 |
| 20260902030050 | 73 | 230 | 1.0 | 4.0 | 0.00 | 0.00 | 0.00 | 53 | 1020.1 |
| 20260902025543 | 73 | 0 | 1.0 | 4.0 | 0.00 | 0.00 | 0.00 | 54 | 1020.0 |
| 20260902025042 | 72 | 138 | 1.0 | 4.0 | 0.00 | 0.00 | 0.00 | 54 | 1020.3 |
| 20260902024601 | 71 | 0 | 2.0 | 8.0 | 0.00 | 0.00 | 0.00 | 56 | 1020.3 |
| 20260902024042 | 71 | 130 | 2.0 | 8.0 | 0.00 | 0.00 | 0.00 | 55 | 1020.4 |
| 20260902023542 | 71 | 54 | 3.0 | 10.0 | 0.00 | 0.00 | 0.00 | 55 | 1020.5 |
| 20260902023057 | 71 | 74 | 1.0 | 10.0 | 0.00 | 0.00 | 0.00 | 57 | 1020.6 |
| 20260902022544 | 70 | 26 | 2.0 | 10.0 | 0.00 | 0.00 | 0.00 | 59 | 1020.7 |
| 20260902022040 | 69 | 69 | 3.0 | 8.0 | 0.00 | 0.00 | 0.00 | 59 | 1020.8 |
| 20260902021553 | 69 | 96 | 3.0 | 8.0 | 0.00 | 0.00 | 0.00 | 59 | 1020.8 |
| 20260902021040 | 69 | 71 | 3.0 | 8.0 | 0.00 | 0.00 | 0.00 | 60 | 1020.7 |
| 20260902020542 | 68 | 85 | 4.0 | 9.0 | 0.00 | 0.00 | 0.00 | 59 | 1020.8 |
| 20260902020059 | 69 | 14 | 4.0 | 9.0 | 0.00 | 0.00 | 0.00 | 60 | 1020.9 |
| 20260902015542 | 68 | 110 | 4.0 | 10.0 | 0.00 | 0.00 | 0.00 | 61 | 1021.0 |
| 20260902015043 | 67 | 52 | 4.0 | 10.0 | 0.00 | 0.00 | 0.00 | 61 | 1021.1 |
| 20260902014557 | 67 | 70 | 4.0 | 10.0 | 0.00 | 0.00 | 0.00 | 61 | 1021.2 |
| 20260902014044 | 67 | 77 | 4.0 | 10.0 | 0.00 | 0.00 | 0.00 | 61 | 1021.3 |
| 20260902013542 | 68 | 53 | 4.0 | 9.0 | 0.00 | 0.00 | 0.00 | 61 | 1021.3 |
| 20260902013051 | 67 | 64 | 4.0 | 12.0 | 0.00 | 0.00 | 0.00 | 62 | 1021.4 |
| 20260902012542 | 66 | 360 | 5.0 | 12.0 | 0.00 | 0.00 | 0.00 | 62 | 1021.4 |
| 20260902012042 | 66 | 49 | 6.0 | 12.0 | 0.00 | 0.00 | 0.00 | 63 | 1021.3 |
| 20260902011600 | 65 | 89 | 5.0 | 12.0 | 0.00 | 0.00 | 0.00 | 63 | 1021.5 |
| 20260902011043 | 66 | 74 | 5.0 | 10.0 | 0.00 | 0.00 | 0.00 | 63 | 1021.4 |
| 20260902010542 | 65 | 58 | 5.0 | 12.0 | 0.00 | 0.00 | 0.00 | 64 | 1021.4 |
| 20260902010058 | 65 | 72 | 7.0 | 12.0 | 0.00 | 0.00 | 0.00 | 65 | 1021.3 |
| 20260902005542 | 64 | 40 | 6.0 | 12.0 | 0.00 | 0.00 | 0.00 | 65 | 1021.3 |
| 20260902005042 | 64 | 59 | 5.0 | 12.0 | 0.00 | 0.00 | 0.00 | 66 | 1021.4 |
| 20260902004601 | 64 | 80 | 7.0 | 12.0 | 0.00 | 0.00 | 0.00 | 67 | 1021.3 |
| 20260902004047 | 64 | 71 | 4.0 | 11.0 | 0.00 | 0.00 | 0.00 | 68 | 1021.4 |
| 20260902003540 | 63 | 69 | 6.0 | 11.0 | 0.00 | 0.00 | 0.00 | 69 | 1021.4 |
| 20260902003059 | 63 | 49 | 6.0 | 11.0 | 0.00 | 0.00 | 0.00 | 70 | 1021.4 |
| 20260902002542 | 62 | 65 | 4.0 | 10.0 | 0.00 | 0.00 | 0.00 | 72 | 1021.4 |
| 20260902002042 | 62 | 51 | 5.0 | 10.0 | 0.00 | 0.00 | 0.00 | 71 | 1021.4 |
| 20260902001607 | 62 | 40 | 4.0 | 10.0 | 0.00 | 0.00 | 0.00 | 72 | 1021.4 |
| 20260902001042 | 61 | 360 | 5.0 | 10.0 | 0.00 | 0.00 | 0.00 | 73 | 1021.4 |
| 20260902000542 | 61 | 360 | 5.0 | 10.0 | 0.00 | 0.00 | 0.00 | 73 | 1021.3 |
| 20260902000105 | 61 | 360 | 4.0 | 9.0 | 0.00 | 0.00 | 0.00 | 74 | 1021.4 |
| 20260901235544 | 60 | 360 | 3.0 | 9.0 | 0.00 | 0.00 | 0.00 | 75 | 1021.4 |
| 20260901235041 | 59 | 360 | 4.0 | 9.0 | 0.00 | 0.00 | 0.00 | 76 | 1021.4 |
| 20260901234611 | 59 | 360 | 3.0 | 8.0 | 0.00 | 0.00 | 0.00 | 76 | 1021.4 |
| 20260901234042 | 59 | 360 | 3.0 | 9.0 | 0.00 | 0.00 | 0.00 | 77 | 1021.6 |
| 20260901233540 | 59 | 360 | 3.0 | 9.0 | 0.00 | 0.00 | 0.00 | 78 | 1021.5 |
| 20260901233103 | 58 | 360 | 4.0 | 9.0 | 0.00 | 0.00 | 0.00 | 78 | 1021.5 |
| 20260901232542 | 58 | 360 | 4.0 | 8.0 | 0.00 | 0.00 | 0.00 | 79 | 1021.5 |
| 20260901232040 | 57 | 360 | 3.0 | 6.0 | 0.00 | 0.00 | 0.00 | 79 | 1021.5 |
| 20260901231604 | 57 | 360 | 3.0 | 6.0 | 0.00 | 0.00 | 0.00 | 80 | 1021.5 |
| 20260901231040 | 57 | 360 | 3.0 | 6.0 | 0.00 | 0.00 | 0.00 | 80 | 1021.5 |
| 20260901230542 | 56 | 360 | 3.0 | 6.0 | 0.00 | 0.00 | 0.00 | 81 | 1021.5 |
| 20260901225540 | 56 | 360 | 2.0 | 5.0 | 0.00 | 0.00 | 0.00 | 83 | 1021.4 |
| 20260901225043 | 55 | 360 | 2.0 | 5.0 | 0.00 | 0.00 | 0.00 | 83 | 1021.4 |
| 20260901224603 | 55 | 360 | 3.0 | 5.0 | 0.00 | 0.00 | 0.00 | 84 | 1021.3 |
| 20260901224039 | 54 | 360 | 2.0 | 4.0 | 0.00 | 0.00 | 0.00 | 84 | 1021.3 |
| 20260901223540 | 54 | 360 | 1.0 | 3.0 | 0.00 | 0.00 | 0.00 | 85 | 1021.3 |
| 20260901223101 | 54 | 360 | 1.0 | 3.0 | 0.00 | 0.00 | 0.00 | 85 | 1021.2 |
| 20260901222540 | 53 | 360 | 1.0 | 3.0 | 0.00 | 0.00 | 0.00 | 85 | 1021.3 |
| 20260901222039 | 53 | 360 | 0.0 | 3.0 | 0.00 | 0.00 | 0.00 | 85 | 1021.3 |
| 20260901221607 | 53 | 0 | 0.0 | 1.0 | 0.00 | 0.00 | 0.00 | 86 | 1021.2 |
| 20260901221043 | 53 | 0 | 0.0 | 1.0 | 0.00 | 0.00 | 0.00 | 85 | 1021.1 |
| 20260901220542 | 52 | 0 | 0.0 | 1.0 | 0.00 | 0.00 | 0.00 | 85 | 1021.1 |
| 20260901220117 | 52 | 0 | 0.0 | 1.0 | 0.00 | 0.00 | 0.00 | 85 | 1021.0 |
| 20260901215542 | 52 | 0 | 0.0 | 2.0 | 0.00 | 0.00 | 0.00 | 85 | 1021.0 |
| 20260901215044 | 52 | 0 | 0.0 | 3.0 | 0.00 | 0.00 | 0.00 | 85 | 1020.9 |
| 20260901214604 | 52 | 360 | 0.0 | 3.0 | 0.00 | 0.00 | 0.00 | 85 | 1020.8 |
| 20260901214043 | 52 | 0 | 1.0 | 2.0 | 0.00 | 0.00 | 0.00 | 85 | 1020.8 |
| 20260901213542 | 52 | 0 | 1.0 | 3.0 | 0.00 | 0.00 | 0.00 | 85 | 1020.7 |
| 20260901213058 | 52 | 360 | 1.0 | 3.0 | 0.00 | 0.00 | 0.00 | 85 | 1020.6 |
| 20260901212542 | 52 | 0 | 1.0 | 2.0 | 0.00 | 0.00 | 0.00 | 85 | 1020.6 |
| 20260901212042 | 52 | 360 | 1.0 | 3.0 | 0.00 | 0.00 | 0.00 | 85 | 1020.5 |
| 20260901211600 | 53 | 0 | 0.0 | 3.0 | 0.00 | 0.00 | 0.00 | 84 | 1020.5 |
| 20260901211047 | 53 | 360 | 1.0 | 4.0 | 0.00 | 0.00 | 0.00 | 84 | 1020.6 |
| 20260901210542 | 53 | 360 | 1.0 | 4.0 | 0.00 | 0.00 | 0.00 | 84 | 1020.4 |
| 20260901210100 | 53 | 360 | 1.0 | 3.0 | 0.00 | 0.00 | 0.00 | 84 | 1020.4 |
| 20260901205542 | 53 | 360 | 1.0 | 4.0 | 0.00 | 0.00 | 0.00 | 84 | 1020.4 |
| 20260901205043 | 53 | 0 | 2.0 | 4.0 | 0.00 | 0.00 | 0.00 | 84 | 1020.4 |
| 20260901204558 | 53 | 360 | 2.0 | 3.0 | 0.00 | 0.00 | 0.00 | 84 | 1020.4 |
| 20260901204045 | 53 | 360 | 0.0 | 2.0 | 0.00 | 0.00 | 0.00 | 83 | 1020.5 |
| 20260901203545 | 53 | 0 | 1.0 | 3.0 | 0.00 | 0.00 | 0.00 | 83 | 1020.4 |
| 20260901203106 | 53 | 360 | 1.0 | 3.0 | 0.00 | 0.00 | 0.00 | 83 | 1020.5 |
| 20260901202541 | 53 | 360 | 1.0 | 3.0 | 0.00 | 0.00 | 0.00 | 83 | 1020.4 |
| 20260901202042 | 53 | 360 | 1.0 | 3.0 | 0.00 | 0.00 | 0.00 | 83 | 1020.5 |
| 20260901201604 | 53 | 360 | 1.0 | 4.0 | 0.00 | 0.00 | 0.00 | 83 | 1020.5 |
| 20260901201043 | 54 | 360 | 1.0 | 4.0 | 0.00 | 0.00 | 0.00 | 83 | 1020.5 |
| 20260901200541 | 54 | 360 | 1.0 | 3.0 | 0.00 | 0.00 | 0.00 | 83 | 1020.5 |
| 20260901200100 | 54 | 360 | 1.0 | 3.0 | 0.00 | 0.00 | 0.00 | 83 | 1020.5 |
| 20260901195544 | 54 | 360 | 1.0 | 3.0 | 0.00 | 0.00 | 0.00 | 82 | 1020.4 |
| 20260901195041 | 54 | 360 | 1.0 | 3.0 | 0.00 | 0.00 | 0.00 | 82 | 1020.4 |
| 20260901194605 | 54 | 360 | 1.0 | 3.0 | 0.00 | 0.00 | 0.00 | 82 | 1020.4 |
| 20260901194045 | 54 | 360 | 1.0 | 3.0 | 0.00 | 0.00 | 0.00 | 82 | 1020.3 |
| 20260901193543 | 54 | 360 | 1.0 | 3.0 | 0.00 | 0.00 | 0.00 | 81 | 1020.4 |
| 20260901193113 | 55 | 360 | 1.0 | 4.0 | 0.00 | 0.00 | 0.00 | 81 | 1020.5 |
| 20260901192542 | 55 | 360 | 1.0 | 4.0 | 0.00 | 0.00 | 0.00 | 81 | 1020.4 |
| 20260901192041 | 55 | 360 | 2.0 | 4.0 | 0.00 | 0.00 | 0.00 | 81 | 1020.4 |
| 20260901191606 | 55 | 360 | 2.0 | 4.0 | 0.00 | 0.00 | 0.00 | 81 | 1020.3 |
| 20260901191044 | 55 | 360 | 2.0 | 5.0 | 0.00 | 0.00 | 0.00 | 81 | 1020.3 |
| 20260901190543 | 55 | 360 | 2.0 | 5.0 | 0.00 | 0.00 | 0.00 | 81 | 1020.4 |
| 20260901190057 | 55 | 360 | 2.0 | 5.0 | 0.00 | 0.00 | 0.00 | 80 | 1020.3 |
| 20260901185542 | 55 | 360 | 2.0 | 5.0 | 0.00 | 0.00 | 0.00 | 81 | 1020.4 |
| 20260901185043 | 56 | 360 | 2.0 | 5.0 | 0.00 | 0.00 | 0.00 | 80 | 1020.4 |
| 20260901184603 | 56 | 360 | 3.0 | 6.0 | 0.00 | 0.00 | 0.00 | 80 | 1020.4 |
| 20260901184043 | 56 | 360 | 2.0 | 8.0 | 0.00 | 0.00 | 0.00 | 80 | 1020.3 |
| 20260901183542 | 56 | 360 | 3.0 | 8.0 | 0.00 | 0.00 | 0.00 | 80 | 1020.4 |
| 20260901183103 | 56 | 360 | 2.0 | 5.0 | 0.00 | 0.00 | 0.00 | 80 | 1020.5 |
| 20260901182544 | 56 | 360 | 2.0 | 8.0 | 0.00 | 0.00 | 0.00 | 80 | 1020.4 |
| 20260901182042 | 56 | 360 | 4.0 | 9.0 | 0.00 | 0.00 | 0.00 | 80 | 1020.5 |
| 20260901181602 | 56 | 360 | 4.0 | 9.0 | 0.00 | 0.00 | 0.00 | 80 | 1020.5 |
| 20260901181042 | 56 | 360 | 5.0 | 9.0 | 0.00 | 0.00 | 0.00 | 80 | 1020.5 |
| 20260901180542 | 56 | 360 | 3.0 | 9.0 | 0.00 | 0.00 | 0.00 | 80 | 1020.5 |
| 20260901180057 | 56 | 360 | 4.0 | 9.0 | 0.00 | 0.00 | 0.00 | 80 | 1020.6 |
| 20260901175543 | 56 | 360 | 4.0 | 8.0 | 0.00 | 0.00 | 0.00 | 79 | 1020.6 |
| 20260901175043 | 57 | 360 | 3.0 | 9.0 | 0.00 | 0.00 | 0.00 | 79 | 1020.6 |
| 20260901174601 | 57 | 360 | 4.0 | 10.0 | 0.00 | 0.00 | 0.00 | 79 | 1020.7 |
| 20260901174044 | 57 | 360 | 5.0 | 10.0 | 0.00 | 0.00 | 0.00 | 79 | 1020.8 |
| 20260901173544 | 57 | 360 | 4.0 | 9.0 | 0.00 | 0.00 | 0.00 | 79 | 1020.8 |
| 20260901173102 | 57 | 360 | 4.0 | 10.0 | 0.00 | 0.00 | 0.00 | 78 | 1020.7 |
| 20260901172545 | 57 | 360 | 4.0 | 10.0 | 0.00 | 0.00 | 0.00 | 78 | 1020.8 |
| 20260901172042 | 57 | 360 | 5.0 | 13.0 | 0.00 | 0.00 | 0.00 | 78 | 1020.8 |
| 20260901171605 | 57 | 360 | 5.0 | 13.0 | 0.00 | 0.00 | 0.00 | 78 | 1020.8 |
| 20260901171042 | 57 | 360 | 7.0 | 14.0 | 0.00 | 0.00 | 0.00 | 78 | 1020.9 |
| 20260901170543 | 57 | 360 | 6.0 | 14.0 | 0.00 | 0.00 | 0.00 | 78 | 1021.0 |
| 20260901170120 | 57 | 360 | 6.0 | 14.0 | 0.00 | 0.00 | 0.00 | 78 | 1021.0 |
| 20260901165542 | 57 | 360 | 5.0 | 12.0 | 0.00 | 0.00 | 0.00 | 78 | 1020.9 |
| 20260901165043 | 57 | 360 | 6.0 | 12.0 | 0.00 | 0.00 | 0.00 | 78 | 1021.1 |
| 20260901164608 | 57 | 360 | 5.0 | 12.0 | 0.00 | 0.00 | 0.00 | 78 | 1021.2 |
| 20260901164043 | 57 | 360 | 6.0 | 12.0 | 0.00 | 0.00 | 0.00 | 77 | 1021.3 |
| 20260901163542 | 57 | 360 | 6.0 | 12.0 | 0.00 | 0.00 | 0.00 | 77 | 1021.2 |
| 20260901163100 | 57 | 360 | 6.0 | 12.0 | 0.00 | 0.00 | 0.00 | 77 | 1021.2 |
| 20260901162542 | 58 | 360 | 6.0 | 13.0 | 0.00 | 0.00 | 0.00 | 77 | 1021.3 |
| 20260901162041 | 58 | 360 | 5.0 | 13.0 | 0.00 | 0.00 | 0.00 | 76 | 1021.3 |
| 20260901161559 | 58 | 360 | 8.0 | 13.0 | 0.00 | 0.00 | 0.00 | 76 | 1021.3 |
| 20260901161043 | 58 | 360 | 6.0 | 10.0 | 0.00 | 0.00 | 0.00 | 76 | 1021.4 |
| 20260901160547 | 58 | 360 | 4.0 | 12.0 | 0.00 | 0.00 | 0.00 | 76 | 1021.4 |
| 20260901155543 | 58 | 360 | 5.0 | 13.0 | 0.00 | 0.00 | 0.00 | 75 | 1021.3 |
| 20260901155046 | 58 | 360 | 5.0 | 13.0 | 0.00 | 0.00 | 0.00 | 75 | 1021.3 |
| 20260901154609 | 59 | 360 | 5.0 | 12.0 | 0.00 | 0.00 | 0.00 | 74 | 1021.3 |
| 20260901154043 | 59 | 360 | 6.0 | 12.0 | 0.00 | 0.00 | 0.00 | 74 | 1021.3 |
| 20260901153544 | 59 | 360 | 7.0 | 12.0 | 0.00 | 0.00 | 0.00 | 74 | 1021.3 |
| 20260901153103 | 59 | 360 | 6.0 | 12.0 | 0.00 | 0.00 | 0.00 | 73 | 1021.2 |
| 20260901152541 | 59 | 360 | 6.0 | 12.0 | 0.00 | 0.00 | 0.00 | 73 | 1021.2 |
| 20260901152043 | 60 | 360 | 5.0 | 12.0 | 0.00 | 0.00 | 0.00 | 73 | 1021.3 |
| 20260901151601 | 60 | 360 | 6.0 | 12.0 | 0.00 | 0.00 | 0.00 | 72 | 1021.2 |
| 20260901151043 | 60 | 360 | 8.0 | 14.0 | 0.00 | 0.00 | 0.00 | 72 | 1021.2 |
| 20260901150541 | 60 | 360 | 7.0 | 14.0 | 0.00 | 0.00 | 0.00 | 71 | 1021.2 |
| 20260901150108 | 61 | 360 | 6.0 | 12.0 | 0.00 | 0.00 | 0.00 | 71 | 1021.4 |
| 20260901145545 | 61 | 360 | 7.0 | 15.0 | 0.00 | 0.00 | 0.00 | 70 | 1021.5 |
| 20260901145042 | 61 | 360 | 8.0 | 15.0 | 0.00 | 0.00 | 0.00 | 70 | 1021.3 |
| 20260901144602 | 62 | 360 | 7.0 | 13.0 | 0.00 | 0.00 | 0.00 | 69 | 1021.3 |
| 20260901144041 | 62 | 360 | 6.0 | 12.0 | 0.00 | 0.00 | 0.00 | 69 | 1021.5 |
| 20260901143539 | 62 | 360 | 5.0 | 11.0 | 0.00 | 0.00 | 0.00 | 68 | 1021.4 |
| 20260901143058 | 63 | 360 | 5.0 | 11.0 | 0.00 | 0.00 | 0.00 | 67 | 1021.5 |
| 20260901142542 | 63 | 360 | 5.0 | 11.0 | 0.00 | 0.00 | 0.00 | 67 | 1021.5 |
| 20260901142041 | 63 | 360 | 5.0 | 10.0 | 0.00 | 0.00 | 0.00 | 66 | 1021.4 |
| 20260901141553 | 63 | 360 | 5.0 | 12.0 | 0.00 | 0.00 | 0.00 | 66 | 1021.5 |
| 20260901141041 | 64 | 360 | 6.0 | 12.0 | 0.00 | 0.00 | 0.00 | 65 | 1021.5 |
| 20260901140544 | 64 | 360 | 7.0 | 12.0 | 0.00 | 0.00 | 0.00 | 64 | 1021.5 |
| 20260901140108 | 64 | 360 | 5.0 | 10.0 | 0.00 | 0.00 | 0.00 | 64 | 1021.5 |
| 20260901135542 | 64 | 360 | 5.0 | 11.0 | 0.00 | 0.00 | 0.00 | 63 | 1021.4 |
| 20260901135042 | 65 | 360 | 5.0 | 13.0 | 0.00 | 0.00 | 0.00 | 63 | 1021.4 |
| 20260901134600 | 65 | 360 | 6.0 | 13.0 | 0.00 | 0.00 | 0.00 | 63 | 1021.5 |
| 20260901134039 | 65 | 360 | 7.0 | 13.0 | 0.00 | 0.00 | 0.00 | 62 | 1021.4 |
| 20260901133541 | 65 | 360 | 6.0 | 12.0 | 0.00 | 0.00 | 0.00 | 62 | 1021.4 |
| 20260901133109 | 66 | 360 | 7.0 | 13.0 | 0.00 | 0.00 | 0.00 | 62 | 1021.3 |
| 20260901132539 | 66 | 360 | 8.0 | 13.0 | 0.00 | 0.00 | 0.00 | 62 | 1021.4 |
| 20260901132043 | 66 | 360 | 5.0 | 12.0 | 0.00 | 0.00 | 0.00 | 62 | 1021.4 |
| 20260901131555 | 67 | 360 | 7.0 | 12.0 | 0.00 | 0.00 | 0.00 | 62 | 1021.4 |
| 20260901131042 | 67 | 360 | 5.0 | 11.0 | 0.00 | 0.00 | 0.00 | 63 | 1021.2 |
| 20260901130539 | 67 | 360 | 5.0 | 14.0 | 0.00 | 0.00 | 0.00 | 62 | 1021.3 |
| 20260901125542 | 68 | 360 | 7.0 | 14.0 | 0.00 | 0.00 | 0.00 | 61 | 1021.3 |
| 20260901125042 | 68 | 360 | 4.0 | 10.0 | 0.00 | 0.00 | 0.00 | 61 | 1021.3 |
| 20260901124606 | 69 | 360 | 3.0 | 10.0 | 0.00 | 0.00 | 0.00 | 60 | 1021.1 |
| 20260901124041 | 69 | 360 | 4.0 | 10.0 | 0.00 | 0.00 | 0.00 | 59 | 1021.1 |
| 20260901123541 | 69 | 360 | 4.0 | 9.0 | 0.00 | 0.00 | 0.00 | 58 | 1021.2 |
| 20260901123106 | 69 | 360 | 4.0 | 9.0 | 0.00 | 0.00 | 0.00 | 57 | 1021.1 |
| 20260901122539 | 69 | 360 | 3.0 | 6.0 | 0.00 | 0.00 | 0.00 | 57 | 1021.1 |
| 20260901122042 | 69 | 360 | 3.0 | 6.0 | 0.00 | 0.00 | 0.00 | 56 | 1021.0 |
| 20260901121606 | 70 | 360 | 3.0 | 8.0 | 0.00 | 0.00 | 0.00 | 56 | 1021.1 |
| 20260901121043 | 70 | 360 | 3.0 | 8.0 | 0.00 | 0.00 | 0.00 | 55 | 1021.0 |
| 20260901120543 | 70 | 360 | 3.0 | 6.0 | 0.00 | 0.00 | 0.00 | 54 | 1021.0 |
| 20260901120111 | 70 | 360 | 2.0 | 6.0 | 0.00 | 0.00 | 0.00 | 54 | 1020.9 |
| 20260901115545 | 70 | 360 | 3.0 | 8.0 | 0.00 | 0.00 | 0.00 | 54 | 1020.8 |
| 20260901115039 | 71 | 360 | 2.0 | 8.0 | 0.00 | 0.00 | 0.00 | 54 | 1020.9 |
| 20260901114627 | 70 | 360 | 2.0 | 5.0 | 0.00 | 0.00 | 0.00 | 54 | 1020.8 |
| 20260901114043 | 70 | 360 | 1.0 | 3.0 | 0.00 | 0.00 | 0.00 | 54 | 1020.9 |
| 20260901113539 | 71 | 360 | 1.0 | 4.0 | 0.00 | 0.00 | 0.00 | 54 | 1020.8 |
| 20260901113100 | 71 | 360 | 1.0 | 4.0 | 0.00 | 0.00 | 0.00 | 54 | 1020.7 |
| 20260901112541 | 71 | 360 | 1.0 | 4.0 | 0.00 | 0.00 | 0.00 | 53 | 1020.6 |
| 20260901112039 | 71 | 360 | 1.0 | 4.0 | 0.00 | 0.00 | 0.00 | 53 | 1020.6 |
| 20260901111601 | 71 | 360 | 2.0 | 4.0 | 0.00 | 0.00 | 0.00 | 53 | 1020.5 |
| 20260901111040 | 71 | 360 | 1.0 | 3.0 | 0.00 | 0.00 | 0.00 | 54 | 1020.5 |
| 20260901110541 | 71 | 0 | 1.0 | 3.0 | 0.00 | 0.00 | 0.00 | 54 | 1020.4 |
| 20260901110105 | 70 | 360 | 0.0 | 2.0 | 0.00 | 0.00 | 0.00 | 55 | 1020.5 |
| 20260901105541 | 70 | 0 | 0.0 | 3.0 | 0.00 | 0.00 | 0.00 | 55 | 1020.4 |
| 20260901105041 | 71 | 360 | 0.0 | 4.0 | 0.00 | 0.00 | 0.00 | 55 | 1020.4 |
| 20260901104557 | 71 | 0 | 0.0 | 4.0 | 0.00 | 0.00 | 0.00 | 55 | 1020.2 |
| 20260901104039 | 71 | 0 | 0.0 | 4.0 | 0.00 | 0.00 | 0.00 | 55 | 1020.1 |
| 20260901103542 | 71 | 0 | 0.0 | 2.0 | 0.00 | 0.00 | 0.00 | 54 | 1020.1 |
| 20260901103107 | 71 | 0 | 0.0 | 2.0 | 0.00 | 0.00 | 0.00 | 54 | 1020.0 |
| 20260901102541 | 72 | 360 | 0.0 | 2.0 | 0.00 | 0.00 | 0.00 | 54 | 1020.0 |
| 20260901102041 | 72 | 0 | 0.0 | 1.0 | 0.00 | 0.00 | 0.00 | 53 | 1020.0 |
| 20260901101601 | 72 | 0 | 0.0 | 2.0 | 0.00 | 0.00 | 0.00 | 51 | 1020.1 |
| 20260901101039 | 73 | 360 | 0.0 | 2.0 | 0.00 | 0.00 | 0.00 | 51 | 1020.0 |
| 20260901100541 | 73 | 360 | 0.0 | 2.0 | 0.00 | 0.00 | 0.00 | 50 | 1020.0 |
| 20260901100105 | 73 | 0 | 0.0 | 2.0 | 0.00 | 0.00 | 0.00 | 49 | 1020.0 |
| 20260901095541 | 74 | 0 | 0.0 | 2.0 | 0.00 | 0.00 | 0.00 | 48 | 1020.0 |
| 20260901095041 | 74 | 360 | 0.0 | 3.0 | 0.00 | 0.00 | 0.00 | 48 | 1019.9 |
| 20260901094602 | 74 | 360 | 1.0 | 3.0 | 0.00 | 0.00 | 0.00 | 48 | 1019.9 |
| 20260901094042 | 74 | 360 | 1.0 | 3.0 | 0.00 | 0.00 | 0.00 | 47 | 1019.9 |
| 20260901093541 | 75 | 360 | 0.0 | 2.0 | 0.00 | 0.00 | 0.00 | 47 | 1019.7 |
| 20260901093055 | 75 | 360 | 0.0 | 4.0 | 0.00 | 0.00 | 0.00 | 46 | 1019.7 |
| 20260901092541 | 76 | 360 | 0.0 | 6.0 | 0.00 | 0.00 | 0.00 | 45 | 1019.5 |
| 20260901092040 | 76 | 175 | 2.0 | 6.0 | 0.00 | 0.00 | 0.00 | 45 | 1019.6 |
| 20260901091558 | 76 | 163 | 2.0 | 6.0 | 0.00 | 0.00 | 0.00 | 43 | 1019.4 |
| 20260901091040 | 77 | 0 | 1.0 | 6.0 | 0.00 | 0.00 | 0.00 | 43 | 1019.5 |
| 20260901090540 | 77 | 168 | 2.0 | 5.0 | 0.00 | 0.00 | 0.00 | 43 | 1019.4 |
| 20260901090059 | 77 | 175 | 2.0 | 8.0 | 0.00 | 0.00 | 0.00 | 42 | 1019.4 |
| 20260901085542 | 78 | 233 | 2.0 | 9.0 | 0.00 | 0.00 | 0.00 | 42 | 1019.3 |
| 20260901085040 | 78 | 244 | 2.0 | 9.0 | 0.00 | 0.00 | 0.00 | 40 | 1019.3 |
| 20260901084603 | 78 | 250 | 3.0 | 8.0 | 0.00 | 0.00 | 0.00 | 40 | 1019.2 |
| 20260901084039 | 79 | 146 | 3.0 | 8.0 | 0.00 | 0.00 | 0.00 | 40 | 1019.1 |
| 20260901083540 | 79 | 193 | 4.0 | 9.0 | 0.00 | 0.00 | 0.00 | 39 | 1019.1 |
| 20260901083107 | 79 | 206 | 3.0 | 9.0 | 0.00 | 0.00 | 0.00 | 39 | 1019.1 |
| 20260901082538 | 80 | 360 | 3.0 | 9.0 | 0.00 | 0.00 | 0.00 | 39 | 1019.1 |
| 20260901082038 | 80 | 360 | 2.0 | 8.0 | 0.00 | 0.00 | 0.00 | 38 | 1019.1 |
| 20260901081559 | 80 | 360 | 2.0 | 10.0 | 0.00 | 0.00 | 0.00 | 39 | 1019.1 |
| 20260901081039 | 80 | 360 | 3.0 | 10.0 | 0.00 | 0.00 | 0.00 | 38 | 1019.0 |
| 20260901080542 | 80 | 360 | 3.0 | 8.0 | 0.00 | 0.00 | 0.00 | 39 | 1019.1 |
| 20260901080104 | 80 | 360 | 1.0 | 8.0 | 0.00 | 0.00 | 0.00 | 39 | 1019.1 |
| 20260901075543 | 80 | 360 | 2.0 | 8.0 | 0.00 | 0.00 | 0.00 | 39 | 1019.0 |
| 20260901075043 | 80 | 103 | 2.0 | 8.0 | 0.00 | 0.00 | 0.00 | 39 | 1018.9 |